Weather in Kandyagash

Kazakhstan     49°27′12″N   57°24′24″E
temp.,
°C
wind,
m/s
gust,
m/s
humid.,
%
clouds,
%
prec.,
mm/h
press.,
hPa
HPBL,
m
20 april, tue
tue2023:00+2e91458100 0.2 1023870
02:00+1ene101358100 0.0 1025832
05:000ene81459100 0.0 1026668
08:00−1ene10155652 0.0 1027640
11:00+2e1012415 0.0 1028905
14:00+5e1011360 0.0 10281069
17:00+6e910330 0.0 10281189
20:00+4e611411 0.0 1029428
21 april, wed
wed2123:00+2e7134724 0.0 1030443
02:00−1e513546 0.0 1031354
05:00−1e512515 0.0 1031375
08:00+1ese712405 0.0 1032566
11:00+6ese8102886 0.0 1031886
14:00+10se892767 0.0 10301175
17:00+11se8927100 0.0 10301258
20:00+7ese61139100 0.0 1031263
22 april, thu
thu2223:00+5ese71443100 0.0 1031335
02:00+4se51345100 0.0 1032399
05:00+4se61446100 0.1 1033451
08:00+5se71348100 0.1 1033540
11:00+9se91235100 0.1 1033892
14:00+12sse101231100 0.0 10321118
17:00+13sse91231100 0.0 10301390
20:00+11se71336100 0.0 1030497
23 april, fri
fri2323:00+8ese4955100 0.6 1031284
02:00+8se71453100 0.0 1029375
05:00+9se71651100 0.0 1029514
08:00+9se71452100 0.0 1029462
11:00+10sse81252100 0.0 1028686
14:00+13se81039100 0.1 10271237
17:00+11se71254100 0.1 10261004
20:00+8se81472100 0.1 1025718
24 april, sat
sat2423:00+8se81470100 1.4 1024587
02:00+8ese81761100 0.1 1021510
05:00+8ese10205398 0.1 1018519
08:00+9se131947100 0.0 1016492
11:00+12sse121751100 0.1 10141102
14:00+16ssw11145571 0.0 10111860
17:00+12wsw11115998 0.0 10131347
20:00+8wsw71076100 0.0 1016972